Location: Unspecified
(0.0000°N, 0.0000°E)
Time: 10:01:44
(UTC+00:00)

Vanguard 2 - Pass Details

Date: 27 October 2021
Orbit: 554 x 2936 km, 32.9° (Epoch: 06 December)

Event Time Altitude Azimuth Distance (km) Brightness Sun altitude
Rises 19:48:00 0° 230° (SW) 5,918 13.0 -30.2°
Reaches altitude 10° 19:51:32 10° 227° (SW) 5,147 12.4 -31.0°
Maximum altitude 20:07:55 74° 143° (SE) 3,002 10.2 -34.9°
Enters shadow 20:12:37 58° 81° (E) 3,271 10.2 -36.1°
Drops below altitude 10° 20:25:18 10° 61° (ENE) 5,432 - -39.1°
Sets 20:29:07 0° 59° (ENE) 6,247 - -40.0°
